Weather History for College Station, TX

Change the Weather History Date:

Monday, October 4, 2010

  Actual Average Record
Temperature  
Mean Temperature 66 °F 74 °F  
Max Temperature 77 °F 85 °F 98 °F (1911)
Min Temperature 54 °F 64 °F 46 °F (1975)
Degree Days  
Heating Degree Days 0 0  
Month to date heating degree days 0 0  
Since 1 July heating degree days 0 2  
Cooling Degree Days 1 10  
Month to date cooling degree days 27 40  
Year to date cooling degree days 3115 2836  
Growing Degree Days 16 (Base 50)    
Moisture  
Dew Point 39 °F    
Average Humidity 44    
Maximum Humidity 64    
Minimum Humidity 23    
Precipitation  
Precipitation 0.00 in 0.15 in 1.01 in (1959)
Month to date precipitation 0.00 0.57  
Year to date precipitation 26.07 29.27  
Sea Level Pressure  
Sea Level Pressure 30.26 in    
Wind  
Wind Speed 6 mph (NE)    
Max Wind Speed 13 mph    
Max Gust Speed 16 mph    
Visibility 10 miles    
Events      
T = Trace of Precipitation, MM = Missing Value Source: NWS Daily Summary

Daily Weather History Graph

Daily Weather History Graph

Search for Another Location

Airport:

Trip Planner

Search our weather history database for the weather conditions in past years. The results will help you decide how hot, cold, wet, or windy it might be!

Date:

Astronomy

Oct. 04, 2010 Rise Set
Actual Time 7:20 AM CDT 7:07 PM CDT
Civil Twilight 6:56 AM CDT 7:31 PM CDT
Nautical Twilight 6:28 AM CDT 7:58 PM CDT
Astronomical Twilight 6:00 AM CDT 8:26 PM CDT
Moon 3:45 AM CDT (10/4) 4:54 PM CDT (10/4)
Length of Visible Light 12h 34m
Length of Day
11h 46m
Waning Crescent, 14% of the Moon is Illuminated
Oct 4
Waning Crescent
Oct 7
New
Oct 14
First Quarter
Oct 22
Full
Oct 30
Last Quarter

Hourly Weather History & Observations

Time (CDT) Temp. Dew Point Humidity Pressure Visibility Wind Dir Wind Speed Gust Speed Precip Events Conditions
12:53 AM 62.1 °F 39.9 °F 44% 30.23 in 10.0 mi NE 9.2 mph - N/A   Clear
1:53 AM 61.0 °F 39.9 °F 46% 30.24 in 10.0 mi NE 10.4 mph - N/A   Clear
2:53 AM 61.0 °F 39.9 °F 46% 30.24 in 10.0 mi NE 8.1 mph - N/A   Clear
3:53 AM 60.1 °F 39.9 °F 47% 30.23 in 10.0 mi NE 9.2 mph - N/A   Clear
4:53 AM 57.9 °F 39.9 °F 51% 30.25 in 10.0 mi ENE 9.2 mph - N/A   Clear
5:53 AM 55.0 °F 41.0 °F 59% 30.26 in 10.0 mi NE 5.8 mph - N/A   Clear
6:53 AM 54.0 °F 41.0 °F 62% 30.28 in 10.0 mi ENE 5.8 mph - N/A   Clear
7:53 AM 54.0 °F 41.0 °F 62% 30.29 in 10.0 mi ENE 8.1 mph - N/A   Clear
8:53 AM 57.9 °F 42.1 °F 56% 30.32 in 10.0 mi East 9.2 mph - N/A   Clear
9:53 AM 63.0 °F 42.1 °F 46% 30.33 in 10.0 mi East 9.2 mph - N/A   Clear
10:53 AM 66.9 °F 39.9 °F 37% 30.34 in 10.0 mi ENE 8.1 mph - N/A   Clear
11:53 AM 70.0 °F 39.9 °F 33% 30.32 in 10.0 mi ENE 11.5 mph - N/A   Clear
12:53 PM 72.0 °F 39.9 °F 31% 30.30 in 10.0 mi ENE 8.1 mph - N/A   Clear
1:53 PM 73.9 °F 37.0 °F 26% 30.26 in 10.0 mi ENE 9.2 mph - N/A   Clear
2:53 PM 75.9 °F 37.0 °F 24% 30.24 in 10.0 mi NNE 10.4 mph - N/A   Clear
3:53 PM 75.9 °F 37.0 °F 24% 30.21 in 10.0 mi Variable 3.5 mph - N/A   Clear
4:53 PM 77.0 °F 37.0 °F 24% 30.21 in 10.0 mi NE 8.1 mph - N/A   Clear
5:53 PM 75.9 °F 36.0 °F 23% 30.20 in 10.0 mi NE 5.8 mph - N/A   Clear
6:53 PM 72.0 °F 36.0 °F 27% 30.21 in 10.0 mi NE 5.8 mph - N/A   Clear
7:53 PM 69.1 °F 36.0 °F 30% 30.22 in 10.0 mi NE 4.6 mph - N/A   Clear
8:53 PM 64.9 °F 39.9 °F 40% 30.24 in 10.0 mi North 3.5 mph - N/A   Clear
9:53 PM 63.0 °F 39.9 °F 43% 30.25 in 10.0 mi Calm Calm - N/A   Clear
10:53 PM 60.1 °F 42.1 °F 51% 30.26 in 10.0 mi Calm Calm - N/A   Clear
11:53 PM 57.9 °F 42.1 °F 56% 30.25 in 10.0 mi Calm Calm - N/A   Clear